カタログに戻る

AE1D

運用中科学PO
NORAD 62618·PAYLOAD·🇯🇵 Japan

打ち上げ Jan 14, 2025 から Vandenberg Space Force Base

Loading…

次のパス (今後24時間)

TLE

最新Source: Space-Track

元期: Sep 14, 2026, 11:55 UTC

1 62618U 25009K   26257.49663488  .00636221  17482-3  15154-2 0  9992
2 62618  97.3837 352.9286 0008576 263.7397  96.2903 15.96594227 93494

AllMySatでAE1Dをリアルタイム追跡

Download on the App Store